Location: Eschertshofen
(49.3064°N, 11.5756°E)
Time: 05:27:32
(UTC+00:00)

Cosmos 1943 Rocket - Pass Details

Date: 18 September 2020
Orbit: 814 x 842 km, 71.0° (Epoch: 20 October)

Event Time Altitude Azimuth Distance (km) Brightness Sun altitude
Exits shadow 22:35:45 16° 37° (NE) 2,026 4.5 -38.8°
Drops below altitude 10° 22:36:54 10° 35° (NE) 2,445 5.0 -38.9°
Sets 22:39:21 0° 31° (NNE) 3,378 5.9 -38.9°
